Starlink 31726

operational
NORAD ID: 59739 Int'l Des: 2024-090 Owner: SPXS Country: US Constellation: starlink
LEOCIRCULAR

About Starlink 31726

Description loading...

Live Position

Loading 3D Globe...

Upcoming Passes

Altitude History

Altitude vs Time

uPlot chart will show altitude changes over time

Two-Line Element Set

1 59739U 24090K 25351.17155835 .00001189 00000-0 52713-4 0 9990
2 59739 43.0023 289.2100 0001350 267.4019 92.6678 15.27584101 90828
Epoch: Dec 17, 2025 • Age: 10 hours

Current Status

Altitude 482.4 km
Velocity 7.63 km/s
Sub-Earth Point 14.05°N, 151.5°E
Launch Date May 13, 2024
Age 1.5 years
Type internet

Technical Details

Classification Payload
Mass 730.00 kg
Dry Mass 700.00 kg
Total Mass 730.00 kg
Length 0.30 m
Diameter 4.10 m
Span 29.00 m
Shape Box + pan
Manufacturer SPXS
Bus Type Starlink V2M
Phase Status In Orbit
Owner/State SPXS/US

Large Constellations

Loading constellations...